Regional Weather Roundup
Issued by NWS Midland/Odessa, TX

Skip options and go directly to product.
Home | Oldest Version | Previous Version | Current Version | All | Text Only | Save Text | Print | Product List | Glossary Off

Skip product version selection by date and time.   

287
ASUS44 KMAF 011210
RWRMAF
MIDLAND AREA WEATHER ROUNDUP
NATIONAL WEATHER SERVICE MIDLAND TX
700 AM CDT WED OCT 01 2014

...IN SOUTHWEST TEXAS AND SOUTHEAST NEW MEXICO...

CITY           SKY/WX    TMP DP  RH WIND       PRES   REMARKS
ALPINE         CLEAR     61  56  82 SW5       29.99S
ANDREWS        FAIR      65  63  90 S9        29.83S
ARTESIA        NOT AVBL
BIG SPRING     CLEAR     66  61  84 S6        29.84S
CARLSBAD       CLEAR     57  53  86 NE5       29.84R
DRYDEN           N/A     70  66  87 N6        29.80R
FORT STOCKTON  CLEAR     66  60  81 S6        29.84R
GUAD PASS      CLEAR     57  39  51 SW18      29.97R
HOBBS          CLEAR     57  57 100 CALM      29.86
MARFA          CLEAR     52  50  93 N3        29.98S
MIDLAND AIRPK  NOT AVBL
MIDLAND INTL   PTCLDY    68  62  81 S3        29.83R
ODESSA         CLEAR     67  62  84 S6        29.84R
PECOS          CLEAR     62  57  83 CALM      29.82R
PRESIDIO       FAIR      70  60  70 N3        29.84R
SEMINOLE       CLEAR     60  59  98 CALM      29.85R
SNYDER         CLEAR     66  62  89 S7        29.83R
WINK           CLEAR     66  64  93 SE8       29.80S
$$
...OTHER STATIONS IN TEXAS...

CITY           SKY/WX    TMP DP  RH WIND       PRES   REMARKS
ABILENE        PTCLDY    73  62  68 S12       29.80R
AMARILLO       CLEAR     55  41  59 SW9       29.81R
AUSTIN         CLOUDY    75  72  90 S5        29.81S
BROWNSVILLE    CLEAR     76  76 100 S3        29.79R
CORPUS CHRISTI PTCLDY    74  73  97 S5        29.79R
DALLAS FTW     PTCLDY    74  70  87 S10       29.79R
DEL RIO        MOCLDY    72  70  93 SE9       29.78R
EL PASO        CLEAR     66  36  32 S12       29.89R
HOUSTON INT    PTCLDY    74  73  97 CALM      29.81S
LUBBOCK        CLEAR     57  52  83 SW7       29.83R
SAN ANGELO     CLEAR     71  64  78 SW10      29.80R
SAN ANTONIO    MOCLDY    76  70  82 S7        29.82S
WACO           CLOUDY    76  70  82 S10       29.81S
WICHITA FALLS  NOT AVBL
$$
...OTHER LOCATIONS IN NEW MEXICO...

CITY           SKY/WX    TMP DP  RH WIND       PRES   REMARKS
ALAMAGORDO     PTCLDY    54  37  54 W5        29.91R
ALBUQUERQUE    CLEAR     52  34  50 N5        29.97R
CANNON AFB     CLEAR     55  41  60 N9        29.87R
CLOVIS           N/A     54  41  62 NW7       29.89R
HOLLOMAN AFB   PTCLDY    55  40  58 S7        29.89R
ROSWELL        CLEAR     51  46  83 W5        29.87R
RUIDOSO        CLEAR     50  30  46 W9        30.04R
SANTA FE       PTCLDY    42  31  64 N10       29.99S WCI  36
TRUTH OR CONSE CLEAR     56  35  45 NW8       29.93R
TUCUMCARI      CLEAR     50  42  74 W6        29.86R
$$

USA.gov is the U.S. government's official web portal to all federal, state and local government web resources and services.